www.pogodaiklimat.ru

Погода и климат >> Архив погоды >> Австралия >> Новый Южный Уэльс >> Эванс Хед


ПОГОДА в Эванс Хед

  • Прогноз погоды в Эванс Хед
  • Монитор погоды в Эванс Хед

АРХИВ ПОГОДЫ в Эванс Хед

Время (UTC), дата Ветер
(напр.,м/с)
 
Видим.   Явления Облачность Т
(С)
Тd
(С)
f
(%)
Тe
(С)
Тes
(С)
Комфортность P
(гПа)
Po
(гПа)
Тmin
(С)
Tmax
(С)
R
(мм)
R24
(мм)
S
(см)
04 12.02 С 7 н/о н/о +32.8 +21.0 50 +40 +40 очень
душно
1000.6 993.4
05 12.02 С 7 н/о н/о +32.5 +22.9 57 +43 +43 опасность
перегрева
999.8 992.7
07 12.02 С 7 н/о н/о +28.6 +21.9 67 +37 +37 очень
душно
999.8 992.7
08 12.02 С 8 н/о н/о +26.3 +23.0 82 +35 +35 очень
душно
1000.1 992.9
10 12.02 С 8 н/о н/о +25.1 +22.8 87 +33 +33 очень
душно
1001.2 994.0
11 12.02 С 6 н/о н/о +25.3 +23.0 87 +34 +34 очень
душно
1002.1 994.9
13 12.02 С 6 н/о н/о +25.2 +22.7 86 +33 +33 очень
душно
1002.4 995.2 +36.2
14 12.02 С 3 н/о н/о +24.3 +22.4 89 +32 +32 очень
душно
1002.4 995.2
16 12.02 С 2 н/о н/о +23.5 +21.9 91 +30 +30 очень
душно
1001.9 994.7
17 12.02 СЗ 3 н/о н/о +23.3 +21.9 92 +32 +32 очень
душно
1001.8 994.6
19 12.02 СВ 3 н/о н/о +22.8 +21.6 93 +30 +30 очень
душно
1002.2 995.0
20 12.02 СВ 2 н/о н/о +23.4 +21.8 91 +32 +32 очень
душно
1002.8 995.6
22 12.02 СЗ 3 н/о н/о +29.7 +22.2 64 +39 +39 очень
душно
1003.7 996.5
23 12.02 СЗ 3 н/о н/о +33.9 +21.7 49 +42 +42 опасность
перегрева
1003.5 996.3
01 13.02 С 6 н/о н/о +35.4 +20.9 43 +42 +42 опасность
перегрева
1002.5 995.3 +22.7
02 13.02 С 4 н/о н/о +37.2 +21.7 41 +45 +45 опасность
перегрева
1001.9 994.7
04 13.02 С 7 н/о н/о +36.7 +22.4 44 +46 +46 опасность
перегрева
1000.3 993.1
05 13.02 С 6 н/о н/о +34.7 +22.7 50 +44 +44 опасность
перегрева
999.6 992.5
07 13.02 С 7 н/о н/о +29.0 +22.7 69 +38 +38 очень
душно
1000.0 992.8
08 13.02 ЮВ 7 н/о н/о +26.5 +22.1 77 +34 +34 очень
душно
1001.9 994.7
10 13.02 Ю 11 н/о н/о +24.9 +21.6 82 +32 +32 очень
душно
1006.5 999.3
11 13.02 Ю 11 н/о н/о +24.7 +21.0 80 +31 +31 очень
душно
1007.6 1000.4
13 13.02 Ю 7 н/о н/о +24.4 +20.7 80 +30 +30 очень
душно
1009.0 1001.8 +39.9
14 13.02 Ю 7 н/о н/о +24.2 +20.9 82 +30 +30 очень
душно
1009.1 1001.9
16 13.02 ЮВ 9 н/о н/о +23.9 +20.4 81 +30 +30 очень
душно
1009.1 1001.9
17 13.02 ЮВ 9 н/о н/о +23.9 +20.2 80 +30 +30 очень
душно
1009.5 1002.3
19 13.02 ЮВ 11 н/о н/о +23.7 +19.8 79 +29 +29 душно 1010.9 1003.7
20 13.02 ЮВ 10 н/о н/о +23.7 +19.8 79 +29 +29 душно 1012.0 1004.8
22 13.02 ЮВ 10 н/о н/о +24.0 +18.9 73 +29 +29 душно 1013.8 1006.6
23 13.02 Ю 10 н/о н/о +24.2 +18.4 70 +29 +29 душно 1014.6 1007.3
01 14.02 ЮВ 9 н/о н/о +23.7 +19.0 75 +28 +28 душно 1015.4 1008.1 +23.6
02 14.02 ЮВ 10 н/о н/о +24.4 +18.6 70 +29 +29 душно 1015.4 1008.1
04 14.02 ЮВ 11 н/о н/о +26.1 +17.5 59 +30 +30 душно 1015.4 1008.1
05 14.02 ЮВ 11 н/о н/о +25.5 +16.9 59 +29 +29 душно 1015.6 1008.3
07 14.02 ЮВ 9 н/о н/о +24.5 +16.7 62 +28 +28 душно 1016.6 1009.3
08 14.02 Ю 8 н/о н/о +23.4 +16.7 66 +28 +28 душно 1017.1 1009.8
10 14.02 ЮВ 8 н/о н/о +22.8 +16.8 69 +28 +28 душно 1018.5 1011.2
11 14.02 ЮВ 7 н/о н/о +23.1 +16.6 67 +28 +28 душно 1019.2 1011.9
13 14.02 ЮВ 8 н/о н/о +23.0 +16.5 67 +28 +28 душно 1019.0 1011.7 +27.3
14 14.02 ЮВ 8 н/о н/о +22.7 +16.5 68 +27 +27 душно 1018.8 1011.5
16 14.02 ЮВ 8 н/о н/о +23.3 +16.1 64 +28 +28 душно 1018.3 1011.0
17 14.02 ЮВ 8 н/о н/о +23.2 +15.5 62 +27 +27 душно 1018.4 1011.1
19 14.02 ЮВ 8 н/о н/о +22.7 +14.5 60 +26 +26 жарко 1018.8 1011.5
20 14.02 ЮВ 7 н/о н/о +22.7 +14.3 59 +26 +26 жарко 1019.5 1012.2
22 14.02 Ю 10 н/о н/о +24.1 +14.5 55 +27 +27 жарко 1020.4 1013.1
23 14.02 Ю 9 н/о н/о +25.7 +15.1 52 +29 +29 душно 1020.6 1013.3
01 15.02 Ю 10 н/о н/о +26.5 +14.3 47 +29 +29 жарко 1020.2 1012.9 +22.7
02 15.02 Ю 10 н/о н/о +27.3 +14.3 45 +30 +30 душно 1019.9 1012.6
04 15.02 ЮВ 10 н/о н/о +27.4 +15.4 48 +30 +30 жарко 1019.0 1011.7
05 15.02 ЮВ 10 н/о н/о +26.9 +16.2 52 +30 +30 душно 1018.7 1011.4
07 15.02 ЮВ 10 н/о н/о +24.7 +16.2 59 +28 +28 душно 1018.6 1011.3
08 15.02 ЮВ 9 н/о н/о +23.8 +15.3 59 +27 +27 жарко 1019.2 1011.9
10 15.02 ЮВ 8 н/о н/о +23.6 +14.9 58 +26 +26 жарко 1020.3 1013.0
11 15.02 ЮВ 6 н/о н/о +23.5 +15.0 59 +26 +26 жарко 1020.8 1013.5
13 15.02 ЮВ 6 н/о н/о +23.2 +15.3 61 +27 +27 душно 1020.2 1012.9 +28.8
14 15.02 ЮВ 5 н/о н/о +23.1 +14.9 60 +27 +27 душно 1019.8 1012.5
16 15.02 Ю 4 н/о н/о +21.3 +16.3 73 +25 +25 комфорт 1018.6 1011.3
17 15.02 ЮВ 6 н/о н/о +22.0 +14.9 64 +25 +25 комфорт 1017.9 1010.6
19 15.02 Ю 3 н/о н/о +20.0 +16.2 79 +23 +23 комфорт 1017.8 1010.5
20 15.02 Ю 3 н/о н/о +20.1 +16.5 80 +23 +23 комфорт 1018.4 1011.1
22 15.02 ЮВ 6 н/о {туман} н/о +23.0 +20.5 86 +30 +30 очень
душно
1019.0 1011.7
23 15.02 ЮВ 8 н/о н/о +25.7 +17.6 61 +30 +30 душно 1019.2 1011.9
01 16.02 ЮВ 8 н/о н/о +26.3 +17.4 58 +30 +30 душно 1019.0 1011.7 +19.5
02 16.02 ЮВ 6 н/о н/о +25.9 +16.7 57 +30 +30 душно 1018.4 1011.1
04 16.02 ЮВ 8 н/о н/о +26.6 +17.9 59 +31 +31 душно 1017.0 1009.7
05 16.02 ЮВ 7 н/о н/о +27.2 +17.1 54 +31 +31 душно 1016.4 1009.1
07 16.02 ЮВ 5 н/о н/о +25.9 +16.2 55 +29 +29 душно 1016.3 1009.0
08 16.02 ЮВ 5 н/о н/о +24.1 +15.3 58 +27 +27 жарко 1016.3 1009.0
10 16.02 В 6 н/о н/о +23.2 +16.3 65 +28 +28 душно 1017.0 1009.7
11 16.02 В 6 н/о н/о +23.1 +15.7 63 +27 +27 душно 1017.3 1010.0
13 16.02 В 5 н/о н/о +22.9 +16.0 65 +27 +27 душно 1017.0 1009.7 +28.5
14 16.02 В 5 н/о н/о +22.5 +16.3 68 +27 +27 душно 1016.3 1009.0
16 16.02 В 4 н/о н/о +22.4 +16.4 69 +27 +27 душно 1014.8 1007.5
17 16.02 З 3 н/о н/о +19.2 +15.1 77 +21 +21 комфорт 1014.3 1007.0
19 16.02 ЮЗ 4 н/о н/о +18.9 +15.8 82 +20 +20 1014.1 1006.8
20 16.02 ЮЗ 4 н/о н/о +18.9 +16.0 83 +20 +20 1014.5 1007.2
22 16.02 Ю 4 н/о н/о +25.8 +17.7 61 +30 +30 душно 1015.2 1007.9
23 16.02 ЮВ 4 н/о н/о +27.2 +16.5 52 +31 +31 душно 1015.5 1008.2
01 17.02 В 4 н/о н/о +28.5 +16.7 49 +32 +32 душно 1015.1 1007.8 +18.6
02 17.02 ЮВ 4 н/о н/о +29.3 +17.2 48 +33 +33 душно 1014.4 1007.1
04 17.02 В 5 н/о н/о +29.1 +17.6 50 +33 +33 очень
душно
1013.0 1005.8
05 17.02 В 6 н/о н/о +28.0 +17.8 54 +32 +32 душно 1012.2 1005.0
07 17.02 В 6 н/о н/о +25.6 +17.3 60 +30 +30 душно 1011.9 1004.7
08 17.02 В 5 н/о н/о +24.5 +18.0 67 +29 +29 душно 1012.2 1005.0
10 17.02 В 4 н/о н/о +23.2 +17.4 70 +29 +29 душно 1013.3 1006.1
11 17.02 В 4 н/о н/о +23.3 +18.0 72 +29 +29 душно 1013.7 1006.5
13 17.02 СВ 2 н/о н/о +23.1 +18.2 74 +29 +29 очень
душно
1013.7 1006.5 +29.7
14 17.02 С 1 н/о н/о +22.5 +17.8 75 +28 +28 душно 1013.2 1006.0
16 17.02 ЮЗ 4 н/о н/о +20.2 +17.2 83 +23 +23 комфорт 1012.3 1005.1
17 17.02 ЮЗ 4 н/о н/о +19.9 +17.1 84 +23 +23 комфорт 1011.9 1004.7
19 17.02 ЮЗ 4 н/о н/о +19.4 +17.0 86 +21 +21 комфорт 1011.6 1004.4
20 17.02 ЮЗ 4 н/о н/о +20.2 +17.2 83 +23 +23 комфорт 1011.8 1004.6
22 17.02 Ю 3 н/о н/о +25.9 +18.6 64 +31 +31 очень
душно
1012.8 1005.6
23 17.02 ЮВ 3 н/о н/о +25.9 +17.8 61 +30 +30 душно 1012.8 1005.6
01 18.02 ЮВ 5 н/о н/о +28.7 +18.5 54 +34 +34 очень
душно
1012.0 1004.8 +19.5
02 18.02 В 5 н/о н/о +28.5 +19.2 57 +34 +34 очень
душно
1011.5 1004.3
04 18.02 В 6 н/о н/о +28.3 +18.4 55 +33 +33 очень
душно
1010.2 1003.0
05 18.02 В 6 н/о н/о +28.3 +17.2 51 +32 +32 душно 1009.6 1002.4
07 18.02 В 5 н/о н/о +26.3 +18.7 63 +31 +31 душно 1009.2 1002.0
08 18.02 СВ 5 н/о н/о +24.8 +18.7 69 +30 +30 душно 1009.4 1002.2
10 18.02 С 3 н/о н/о +22.8 +18.1 75 +28 +28 душно 1010.6 1003.4
11 18.02 С 3 н/о н/о +22.5 +18.7 79 +28 +28 душно 1010.7 1003.5
13 18.02 СЗ 3 н/о н/о +21.4 +18.4 83 +26 +26 душно 1010.8 1003.6 +30.1
14 18.02 СЗ 3 н/о н/о +20.6 +18.2 86 +25 +25 комфорт 1010.3 1003.1
16 18.02 СЗ 3 н/о н/о +19.8 +17.9 89 +23 +23 комфорт 1009.2 1002.0
17 18.02 СЗ 3 н/о н/о +19.4 +17.5 89 +22 +22 комфорт 1008.7 1001.5
19 18.02 СЗ 3 н/о н/о +18.6 +17.3 92 +20 +20 1008.1 1000.9
20 18.02 СЗ 3 н/о н/о +19.0 +17.8 93 +21 +21 комфорт 1008.4 1001.2
22 18.02 СЗ 2 н/о н/о +26.0 +19.2 66 +31 +31 очень
душно
1008.8 1001.6
23 18.02 СЗ 3 н/о н/о +28.9 +17.4 50 +33 +33 очень
душно
1008.9 1001.7
01 19.02 С 5 н/о н/о +32.2 +19.5 47 +38 +38 очень
душно
1007.5 1000.3 +18.4
02 19.02 СВ 7 н/о н/о +29.7 +20.0 56 +36 +36 очень
душно
1007.1 999.9

 

Местоположение метеостанции Эванс Хед (Новый Южный Уэльс, Австралия): широта -29.18 долгота 153.40 высота над уровнем моря 63 м.

В архиве по умолчанию представлена погода в Эванс Хед за последнюю неделю. Архивные данные за месяц целиком и за предыдущие месяцы, начиная с января 2011 года, Вы можете получить, выбрав интересующий диапазон дат из раскрывающегося списка и нажав кнопку "Ввод!".


*Определитесь, кто Вы:
робот инопланетянин человек

Внимание! Время в таблицах - всемирное. Для получения местного времени необходимо прибавить поправку, которая равна 10 ч.

Смотрите также архив погоды в соседних городах и на ближайших метеорологических станциях:

Погода в Ямбе (Новый Южный Уэльс, Австралия) (28 км)
Погода в Баллине (Новый Южный Уэльс, Австралия) (42 км)
Погода в Лисморе (Новый Южный Уэльс, Австралия) (44 км)
Погода в Казино (Новый Южный Уэльс, Австралия) (48 км)
Погода в Графтоне (Новый Южный Уэльс, Австралия) (64 км)
Погода на Мысе Байрон (Новый Южный Уэльс, Австралия) (65 км)
Погода в Графтон аэропорту (Новый Южный Уэльс, Австралия) (73 км)
Погода в Кулангатте (Новый Южный Уэльс, Австралия) (113 км)
Погода в Кофс-Харборе (Новый Южный Уэльс, Австралия) (129 км)
Погода в Голд-Косте (Квинсленд, Австралия) (139 км)

Пояснения к столбцам:

Ветер - указаны скорость ветра в м/с - средняя за 10 мин, порывы в срок и между сроками (в фигурных скобках) и направление, откуда дует ветер: С - северный, СВ - северо-восточный, В - восточный, ЮВ - юго-восточный, Ю - южный, ЮЗ - юго-западный, З - западный, СЗ - северо-западный.
Видимость - горизонтальная дальность видимости в метрах или километрах. При видимости от 1 до 10 км при отсутствии осадков обычно наблюдается дымка, при ухудшении видимости до 1 км и менее - туман. В сухую погоду видимость может ухудшаться дымом, пылью или мглою.
Явления - указаны атмосферные явления, наблюдавшиеся в срок или в последний час перед сроком; фигурными скобками обозначены явления, наблюдавшиеся между сроками (за 1-3 часа до срока); квадратными скобками обозначены град или гололедные отложения с указанием их диаметра в мм.
Облачность - указаны через наклонную черту общая и нижняя облачность в баллах и высота нижней границы облаков в метрах; квадратными скобками обозначены формы облаков: Ci - перистые, Cs - перисто-слоистые, Cc - перисто-кучевые, Ac - высококучевые, As - высокослоистые, Sc - слоисто-кучевые, Ns - слоисто-дождевые, Cu - кучевые, Cb - кучево-дождевые. Подробнее классификацию облаков см. в Атласе облаков (PDF).
T - Температура воздуха - температура, измеренная на высоте 2 м над землей.
Td - Температура точки росы - температура, при понижении до которой содержащийся в воздухе водяной пар достигнет насыщения.
f - Относительная влажность воздуха - влажноcть воздуха, измеренная на высоте 2 м над землей.
Te - Эффективная температура - температура, которую ощущает одетый по сезону человек в тени. Характеристика душности погоды. При расчете учитывается влияние влажности воздуха и скорости ветра на теплоощущения человека.
Tes - Эффективная температура на солнце - температура, которую ощущает человек, с поправкой на солнечный нагрев. Характеристика знойности погоды. Зависит от высоты солнца над горизонтом, облачности и скорости ветра. Ночью, в пасмурную погоду, а также при ветре 12 м/с и более поправка равна нулю.
P - Атмосферное давление - приведенное к уровню моря атмосферное давление.
Po - Атмосферное давление - измеренное на уровне метеостанции атмосферное давление.
Tmin - Минимальная температура - минимум температуры воздуха на высоте 2 м над землей.
Tmax - Максимальная температура - максимум температуры воздуха на высоте 2 м над землей.
R - Количество осадков - Количество выпавших осадков за период времени, мм. При наведении курсора мыши на число - период времени, за который выпало указанное количество осадков.
R24 - Количество осадков - Количество выпавших осадков за 24 часа, мм.
S - Снежный покров - Высота снежного покрова, см. При наведении курсора мыши на число - состояние снежного покрова и степень покрытия местности в баллах.